Location: ???? ?????
(30.0052°N, 31.2891°E)
Time: 21:39:21
(UTC+00:00)

GPS 2-04 Rocket1 - Pass Details

Date: 26 May 2022
Orbit: 404 x 513 km, 35.6° (Epoch: 04 July)

Event Time Altitude Azimuth Distance (km) Brightness Sun altitude
Exits shadow 01:52:37 13° 284° (WNW) 1,352 4.4 -12.8°
Maximum altitude 01:55:24 37° 350° (N) 686 3.5 -12.3°
Drops below altitude 10° 01:58:45 10° 60° (ENE) 1,567 6.7 -11.7°
Sets 02:01:04 0° 69° (ENE) 2,462 8.0 -11.3°
